www.pogodaiklimat.ru

Погода и климат >> Архив погоды >> Французская Полинезия >> Atuona


ПОГОДА в Atuona

  • Прогноз погоды в Atuona
  • Монитор погоды в Atuona
  • Климат города

АРХИВ ПОГОДЫ в Atuona

Время (UTC), дата Ветер
(напр.,м/с)
 
Видим.   Явления Облачность Т
(С)
Тd
(С)
f
(%)
Тe
(С)
Тes
(С)
Комфортность P
(гПа)
Po
(гПа)
Тmin
(С)
Tmax
(С)
R
(мм)
R24
(мм)
S
(см)
01 15.10 В 5
{11}
50 км 3/3 750 м
[Cu med, cong]
+27.2 +21.9 73 +35 +38 очень
душно
1006.9 1000.9
02 15.10 В 5
{8}
50 км 4/4 700 м
[Cu Sc]
+26.6 +22.0 76 +34 +35 очень
душно
1007.3 1001.3
03 15.10 В 2 н/о н/о +26.4 +22.3 78 +34 +34 очень
душно
1007.9 1001.9
04 15.10 В 2 н/о н/о +26.1 +22.2 79 +34 +34 очень
душно
1008.5 1002.5
05 15.10 В 3 н/о н/о +25.6 +22.7 84 +34 +34 очень
душно
1008.9 1002.9 0.2
06 15.10 С 1 н/о н/о +24.9 +23.5 92 +34 +34 очень
душно
1009.7 1003.7 0.2
07 15.10 СВ 1 н/о н/о +24.4 +23.2 93 +33 +33 очень
душно
1010.2 1004.1
08 15.10 штиль 0 н/о н/о +24.0 +23.1 95 +32 +32 очень
душно
1010.0 1003.9
09 15.10 С 1 н/о н/о +23.5 +22.7 95 +31 +31 очень
душно
1009.3 1003.2
10 15.10 СЗ 1 н/о н/о +23.4 +22.6 95 +32 +32 очень
душно
1008.6 1002.5
11 15.10 СЗ 1 н/о н/о +23.8 +22.9 95 +32 +32 очень
душно
1008.0 1001.9
12 15.10 С 1 н/о н/о +23.8 +22.4 92 +31 +31 очень
душно
1007.7 1001.6 +30.4 +30.4
13 15.10 СЗ 1 н/о н/о +23.4 +22.2 93 +32 +32 очень
душно
1008.0 1001.9
14 15.10 СВ 1 н/о н/о +22.9 +22.2 96 +31 +31 очень
душно
1008.5 1002.4
15 15.10 штиль 0
{2}
50 км 4/4 700 м
[Cu med, cong]
+22.6 +21.8 95 +30 +30 очень
душно
1009.2 1003.1
16 15.10 С 3
{5}
50 км 5/5 700 м
[Cu Sc]
+24.1 +22.2 89 +31 +32 очень
душно
1010.1 1004.0
17 15.10 СВ 2
{4}
50 км 5/5 700 м
[Cu Sc]
+28.5 +22.0 68 +37 +39 очень
душно
1010.7 1004.7
18 15.10 СВ 3
{8}
50 км 4/4 700 м
[Cu med, cong]
+29.9 +20.7 58 +37 +42 очень
душно
1010.7 1004.7
19 15.10 С 4
{7}
50 км 4/4 700 м
[Cu Sc]
+30.6 +20.8 56 +38 +45 очень
душно
1010.3 1004.4
20 15.10 С 4
{9}
50 км 5/5 700 м
[Cu Sc]
+30.1 +21.2 59 +38 +44 очень
душно
1009.9 1004.0
21 15.10 СВ 4
{9}
50 км 5/5 700 м
[Cu Sc]
+29.5 +20.4 58 +36 +44 очень
душно
1009.3 1003.3
22 15.10 В 4
{9}
50 км 4/4 700 м
[Cu Sc]
+29.5 +20.9 60 +37 +46 очень
душно
1008.4 1002.4
23 15.10 В 8
{12}
50 км 3/3 700 м
[Cu med, cong]
+28.7 +22.0 67 +37 +40 очень
душно
1007.2 1001.2
00 16.10 В 9
{12}
50 км 3/3 700 м
[Cu med, cong]
+28.0 +21.5 68 +36 +37 очень
душно
1006.9 1000.9 +22.5
01 16.10 В 7
{13}
50 км 3/3 700 м
[Cu med, cong]
+27.5 +21.8 71 +35 +37 очень
душно
1007.1 1001.1
02 16.10 В 7
{11}
50 км 3/3 700 м
[Cu med, cong]
+26.5 +21.5 74 +34 +34 очень
душно
1007.6 1001.6
03 16.10 В 2 н/о н/о +26.2 +21.6 76 +34 +34 очень
душно
1008.3 1002.3
04 16.10 СЗ 1 н/о н/о +25.0 +21.5 81 +32 +32 очень
душно
1009.2 1003.2
05 16.10 С 1 н/о н/о +24.0 +22.1 89 +31 +31 очень
душно
1010.0 1003.9
06 16.10 С 1 н/о н/о +23.3 +21.9 92 +32 +32 очень
душно
1010.4 1004.3
07 16.10 штиль 0 н/о н/о +23.1 +21.9 93 +31 +31 очень
душно
1010.9 1004.8
08 16.10 СВ 1 н/о н/о +23.3 +22.1 93 +32 +32 очень
душно
1010.6 1004.5
09 16.10 СВ 1 н/о н/о +23.1 +22.1 94 +31 +31 очень
душно
1010.0 1003.9
10 16.10 СВ 1 н/о н/о +22.6 +21.8 95 +30 +30 очень
душно
1009.4 1003.3
11 16.10 СВ 1 н/о н/о +22.4 +21.6 95 +30 +30 очень
душно
1008.7 1002.6
12 16.10 СВ 1 н/о н/о +22.3 +21.5 95 +29 +29 очень
душно
1008.5 1002.4 +31.3 +31.3
13 16.10 СВ 1 н/о н/о +22.4 +21.2 93 +29 +29 очень
душно
1008.7 1002.6
14 16.10 С 1 н/о н/о +22.1 +21.1 94 +29 +29 очень
душно
1009.3 1003.2
15 16.10 СВ 2
{4}
50 км 1/1 800 м
[Cu hum]
+22.0 +21.0 94 +28 +28 душно 1010.1 1004.0
16 16.10 СВ 1
{3}
н/о н/о +24.9 +21.0 79 +31 +31 очень
душно
1010.9 1004.8
17 16.10 СВ 1
{3}
50 км 4/4 800 м
[Cu hum]
+27.4 +20.7 67 +34 +37 очень
душно
1011.4 1005.4
18 16.10 В 5
{10}
50 км 4/4 800 м
[Cu hum]
+29.0 +21.0 62 +36 +39 очень
душно
1011.5 1005.5
19 16.10 В 8
{12}
н/о н/о +28.5 +21.0 64 +36 +36 очень
душно
1011.0 1005.0
20 16.10 В 8
{12}
н/о н/о +28.6 +20.9 63 +36 +36 очень
душно
1010.6 1004.6
21 16.10 В 8
{14}
50 км 3/3 800 м
[Cu hum]
+28.6 +21.6 66 +37 +40 очень
душно
1009.9 1003.9
22 16.10 В 8
{13}
н/о н/о +28.8 +21.6 65 +37 +37 очень
душно
1008.9 1002.9
23 16.10 В 9 50 км 4/4 700 м
[Cu med, cong]
+28.4 +20.9 64 +36 +37 очень
душно
1008.0 1002.0
00 17.10 В 8
{14}
50 км 4/4 700 м
[Cu med, cong]
+27.6 +21.4 69 +35 +36 очень
душно
1007.8 1001.8 +21.9
01 17.10 В 7
{12}
50 км 4/4 700 м
[Cu med, cong]
+27.4 +21.0 68 +34 +36 очень
душно
1007.9 1001.9
02 17.10 В 3 н/о н/о +26.7 +22.3 77 +35 +35 очень
душно
1008.3 1002.3
03 17.10 ЮЗ 1 н/о н/о +26.4 +22.0 77 +34 +34 очень
душно
1009.1 1003.1
04 17.10 СЗ 1 н/о н/о +24.9 +22.0 84 +32 +32 очень
душно
1009.9 1003.9
05 17.10 С 1 н/о н/о +24.0 +22.1 89 +31 +31 очень
душно
1010.8 1004.7
06 17.10 С 1 н/о н/о +23.8 +22.2 91 +31 +31 очень
душно
1011.8 1005.7
07 17.10 СВ 1 н/о н/о +23.6 +22.2 92 +31 +31 очень
душно
1012.2 1006.1
08 17.10 СВ 1 н/о н/о +23.2 +22.0 93 +32 +32 очень
душно
1012.2 1006.1
09 17.10 С 1 н/о н/о +23.3 +21.9 92 +32 +32 очень
душно
1011.7 1005.6
10 17.10 СВ 1 н/о н/о +23.5 +21.6 89 +30 +30 очень
душно
1011.1 1005.0
11 17.10 СВ 1 н/о н/о +23.2 +21.5 90 +31 +31 очень
душно
1011.0 1004.9
12 17.10 С 1 н/о н/о +22.9 +21.4 91 +30 +30 очень
душно
1010.8 1004.7 +29.1 +29.1
13 17.10 С 1 н/о н/о +22.7 +21.2 91 +30 +30 очень
душно
1011.1 1005.0
14 17.10 СВ 1 н/о н/о +22.6 +21.1 91 +30 +30 очень
душно
1011.7 1005.6
15 17.10 С 2
{4}
40 км 3/3 800 м
[Cu hum]
+22.5 +21.1 92 +30 +30 очень
душно
1012.3 1006.2
16 17.10 СВ 1 н/о н/о +24.8 +21.1 80 +31 +31 очень
душно
1012.8 1006.7
17 17.10 В 3
{5}
50 км 1/1 800 м
[Cu hum]
+28.0 +20.8 65 +35 +39 очень
душно
1013.5 1007.5
18 17.10 В 7
{10}
50 км 1/1 800 м
[Cu hum]
+28.6 +20.9 63 +36 +39 очень
душно
1013.8 1007.8
19 17.10 В 6
{9}
н/о н/о +28.9 +20.6 61 +36 +36 очень
душно
1013.3 1007.3
20 17.10 В 7
{13}
н/о н/о +28.8 +21.6 65 +37 +37 очень
душно
1012.5 1006.5
21 17.10 В 8
{15}
50 км 3/3 800 м
[Cu med, cong]
+27.7 +20.8 66 +35 +37 очень
душно
1011.8 1005.8
22 17.10 В 7
{13}
50 км 3/3 800 м
[Cu med, cong]
+28.5 +21.8 67 +37 +41 очень
душно
1010.8 1004.8
23 17.10 В 7
{13}
50 км 1/1 800 м
[Cu med, cong]
+28.1 +21.6 68 +36 +41 очень
душно
1009.9 1003.9
00 18.10 В 7
{15}
50 км 1/1 800 м
[Cu med, cong]
+27.8 +21.8 70 +36 +39 очень
душно
1009.4 1003.4 +22.3
01 18.10 В 8
{13}
50 км 1/1 800 м
[Cu med, cong]
+27.3 +20.9 68 +34 +35 очень
душно
1009.4 1003.4
02 18.10 В 7
{14}
50 км 3/3 800 м
[Cu med, cong]
+26.7 +21.5 73 +34 +35 очень
душно
1009.7 1003.7
03 18.10 В 3 н/о н/о +26.3 +21.7 76 +34 +34 очень
душно
1010.4 1004.4
04 18.10 штиль 0 н/о н/о +25.5 +21.4 78 +32 +32 очень
душно
1011.4 1005.4
05 18.10 СВ 1 н/о н/о +24.0 +21.7 87 +31 +31 очень
душно
1012.4 1006.3
06 18.10 С 1 н/о н/о +24.1 +21.6 86 +31 +31 очень
душно
1012.8 1006.7
07 18.10 СВ 1 н/о н/о +24.5 +21.2 82 +31 +31 очень
душно
1013.1 1007.0
08 18.10 С 1 н/о н/о +24.8 +21.7 83 +32 +32 очень
душно
1013.2 1007.1
09 18.10 В 1 н/о н/о +25.0 +21.9 83 +32 +32 очень
душно
1013.0 1006.9
10 18.10 В 1 н/о н/о +25.7 +22.0 80 +33 +33 очень
душно
1012.3 1006.3
11 18.10 В 3 н/о н/о +25.9 +22.0 79 +33 +33 очень
душно
1011.8 1005.8
12 18.10 В 3 н/о н/о +25.7 +22.0 80 +33 +33 очень
душно
1011.5 1005.5 +29.4 +29.4
13 18.10 В 2 н/о н/о +25.8 +21.9 79 +33 +33 очень
душно
1011.6 1005.6
14 18.10 В 3 н/о н/о +25.6 +22.1 81 +33 +33 очень
душно
1012.4 1006.4
15 18.10 В 3
{9}
50 км 5/5 630 м
[Cu med, cong]
+25.6 +21.9 80 +33 +33 очень
душно
1013.1 1007.0
16 18.10 СВ 2
{8}
50 км 4/4 630 м
[Cu med, cong]
+25.5 +21.8 80 +33 +33 очень
душно
1013.7 1007.6
17 18.10 В 2
{8}
50 км 4/4 630 м
[Cu med, cong]
+27.4 +21.9 72 +35 +38 очень
душно
1014.1 1008.1
18 18.10 В 7
{11}
50 км 4/4 700 м
[Cu med, cong]
+28.5 +21.3 65 +36 +38 очень
душно
1014.1 1008.1
19 18.10 В 6
{11}
50 км 4/4 700 м
[Cu med, cong]
+29.2 +21.7 64 +37 +41 очень
душно
1013.9 1007.9
20 18.10 В 8-13
{13}
50 км 4/4 700 м
[Cu med, cong]
+29.0 +21.5 64 +37 +39 очень
душно
1013.4 1007.4
21 18.10 В 7
{14}
50 км 3/3 700 м
[Cu med, cong]
+29.0 +21.8 65 +37 +41 очень
душно
1012.9 1006.9
22 18.10 В 8
{13}
н/о н/о +28.6 +21.1 64 +36 +36 очень
душно
1011.9 1005.9
23 18.10 В 6
{13}
50 км 3/3 700 м
[Cu Sc]
+28.5 +21.3 65 +36 +42 очень
душно
1011.2 1005.2
00 19.10 В 7
{12}
50 км 3/3 700 м
[Cu Sc]
+28.1 +21.9 69 +36 +39 очень
душно
1010.7 1004.7 +23.9
01 19.10 В 6
{12}
50 км 3/3 700 м
[Cu med, cong]
+27.7 +22.0 71 +36 +38 очень
душно
1010.4 1004.4
02 19.10 В 6
{11}
50 км 3/3 700 м
[Cu med, cong]
+26.8 +22.0 75 +35 +35 очень
душно
1010.6 1004.6
03 19.10 В 3 н/о н/о +26.7 +22.3 77 +35 +35 очень
душно
1011.1 1005.1
04 19.10 В 3 н/о н/о +26.3 +22.4 79 +34 +34 очень
душно
1011.8 1005.8
05 19.10 В 3 н/о н/о +26.3 +22.4 79 +34 +34 очень
душно
1012.2 1006.2
06 19.10 В 2 н/о н/о +26.1 +22.0 78 +34 +34 очень
душно
1012.6 1006.6
07 19.10 В 2 н/о н/о +26.0 +22.1 79 +34 +34 очень
душно
1012.7 1006.7
08 19.10 В 2 н/о н/о +25.9 +22.0 79 +33 +33 очень
душно
1012.5 1006.5
09 19.10 В 2 н/о н/о +25.8 +21.9 79 +33 +33 очень
душно
1011.9 1005.9
10 19.10 В 2 н/о н/о +25.7 +21.6 78 +33 +33 очень
душно
1011.5 1005.5
11 19.10 В 2 н/о н/о +25.6 +21.5 78 +33 +33 очень
душно
1010.9 1004.9
12 19.10 ЮВ 3 н/о н/о +25.8 +21.9 79 +33 +33 очень
душно
1010.6 1004.6 +29.4 +29.4
13 19.10 В 2 н/о н/о +25.4 +21.1 77 +32 +32 очень
душно
1010.7 1004.7
14 19.10 В 2 н/о н/о +25.5 +21.6 79 +33 +33 очень
душно
1011.2 1005.2
15 19.10 СВ 1
{8}
50 км 4/4 630 м
[Cu med, cong]
+25.1 +21.0 78 +32 +32 очень
душно
1011.9 1005.8
16 19.10 СВ 1
{3}
50 км 4/4 700 м
[Cu med, cong]
+26.9 +21.9 74 +35 +36 очень
душно
1012.3 1006.3
17 19.10 В 4
{7}
50 км 3/3 700 м
[Cu med, cong]
+28.4 +21.9 68 +37 +39 очень
душно
1012.8 1006.8
18 19.10 В 5
{9}
50 км 3/3 700 м
[Cu med, cong]
+29.2 +20.9 61 +36 +40 очень
душно
1013.0 1007.0
19 19.10 В 6
{9}
50 км 3/3 700 м
[Cu med, cong]
+29.7 +21.6 62 +38 +43 очень
душно
1012.8 1006.8
20 19.10 В 8
{10}
50 км 3/3 700 м
[Cu med, cong]
+29.3 +20.7 60 +36 +39 очень
душно
1012.0 1006.0
21 19.10 В 8
{13}
50 км 3/3 700 м
[Cu med, cong]
+29.4 +21.4 62 +37 +40 очень
душно
1011.2 1005.2
22 19.10 В 7
{13}
50 км 3/3 700 м
[Cu med, cong]
+29.2 +20.9 61 +36 +40 очень
душно
1010.2 1004.2
23 19.10 В 7
{12}
50 км 3/3 700 м
[Cu med, cong]
+28.6 +21.4 65 +36 +40 очень
душно
1009.4 1003.4
00 20.10 В 7
{13}
50 км 3/3 700 м
[Cu med, cong]
+28.1 +20.6 64 +35 +37 очень
душно
1009.5 1003.5 +24.9
01 20.10 В 6
{11}
50 км 3/3 700 м
[Cu med, cong]
+28.2 +20.7 64 +35 +37 очень
душно
1009.8 1003.8
02 20.10 В 2
{7}
50 км 3/3 700 м
[Cu Sc]
+27.4 +21.0 68 +34 +36 очень
душно
1010.3 1004.3
03 20.10 штиль 0 н/о н/о +26.7 +21.0 71 +34 +34 очень
душно
1011.0 1005.0
04 20.10 СЗ 1 н/о н/о +25.8 +21.5 77 +33 +33 очень
душно
1011.5 1005.5
05 20.10 С 1 н/о н/о +24.9 +22.0 84 +32 +32 очень
душно
1012.1 1006.0
06 20.10 С 1 н/о н/о +24.2 +21.9 87 +31 +31 очень
душно
1012.6 1006.5
07 20.10 СЗ 1 н/о н/о +24.3 +22.0 87 +31 +31 очень
душно
1012.9 1006.8
08 20.10 штиль 0 н/о н/о +24.5 +22.4 88 +32 +32 очень
душно
1012.6 1006.5
09 20.10 С 1 н/о н/о +24.4 +22.8 91 +32 +32 очень
душно
1011.7 1005.6
10 20.10 СВ 1 н/о н/о +24.5 +22.7 90 +32 +32 очень
душно
1011.2 1005.1
11 20.10 СЗ 1 н/о н/о +24.5 +22.9 91 +32 +32 очень
душно
1010.5 1004.4
12 20.10 С 1 н/о н/о +23.9 +22.5 92 +31 +31 очень
душно
1010.3 1004.2 +30.4 +30.4
13 20.10 СВ 1 н/о н/о +23.4 +22.2 93 +32 +32 очень
душно
1010.2 1004.1
14 20.10 СВ 1 н/о н/о +22.9 +22.1 95 +31 +31 очень
душно
1010.7 1004.6
15 20.10 СВ 2
{3}
30 км 8/8 630 м
[Cu Sc]
+23.6 +22.2 92 +31 +31 очень
душно
1011.3 1005.2
16 20.10 СЗ 2
{4}
30 км 8/6 630 м
[Cu Sc Ac lent]
+26.2 +23.1 83 +35 +35 очень
душно
1011.8 1005.8
17 20.10 В 2
{5}
н/о н/о +29.6 +23.1 68 +40 +40 очень
душно
1012.1 1006.1
18 20.10 С 3
{6}
40 км 5/4 630 м
[Cu Sc Ac lent]
+30.0 +20.6 57 +37 +42 очень
душно
1012.2 1006.2
19 20.10 В 2
{7}
н/о н/о +29.9 +20.7 58 +37 +37 очень
душно
1011.9 1005.9
20 20.10 В 5
{9}
40 км 4/4 700 м
[Cu med, cong]
+30.3 +20.5 56 +37 +43 очень
душно
1011.4 1005.4
21 20.10 СВ 2 н/о н/о +30.3 +20.3 55 +37 +37 очень
душно
1010.7 1004.7
22 20.10 В 6
{11}
40 км 4/4 700 м
[Cu med, cong]
+28.5 +21.5 66 +36 +41 очень
душно
1009.8 1003.8
23 20.10 В 8
{12}
н/о н/о +29.6 +21.5 62 +38 +38 очень
душно
1009.1 1003.1
00 21.10 В 8
{12}
40 км 4/4 700 м
[Cu med, cong]
+28.9 +21.4 64 +37 +38 очень
душно
1008.7 1002.7 +22.9
01 21.10 В 8
{11}
40 км 4/4 700 м
[Cu med, cong]
+28.2 +21.7 68 +36 +37 очень
душно
1008.7 1002.7
02 21.10 В 7
{11}
н/о н/о +27.1 +21.8 73 +35 +35 очень
душно
1008.9 1002.9
03 21.10 В 3 н/о н/о +26.7 +21.7 74 +34 +34 очень
душно
1009.8 1003.8
04 21.10 СЗ 1 н/о н/о +26.4 +22.0 77 +34 +34 очень
душно
1010.7 1004.7
05 21.10 В 1 н/о н/о +25.9 +22.2 80 +34 +34 очень
душно
1011.3 1005.3
06 21.10 С 1 н/о н/о +24.8 +22.1 85 +32 +32 очень
душно
1011.8 1005.7
07 21.10 С 1 н/о н/о +24.3 +22.4 89 +32 +32 очень
душно
1012.2 1006.1
08 21.10 штиль 0 н/о н/о +24.1 +22.5 91 +32 +32 очень
душно
1011.9 1005.8
09 21.10 СВ 1 н/о н/о +24.1 +22.7 92 +32 +32 очень
душно
1011.1 1005.0
10 21.10 С 1 н/о н/о +23.7 +22.5 93 +31 +31 очень
душно
1010.4 1004.3
11 21.10 С 1 н/о н/о +23.3 +22.3 94 +32 +32 очень
душно
1009.8 1003.7
12 21.10 СВ 1 н/о н/о +23.4 +22.2 93 +32 +32 очень
душно
1009.8 1003.7 +30.9 +30.9
13 21.10 С 1 н/о н/о +23.5 +22.5 94 +31 +31 очень
душно
1010.0 1003.9
14 21.10 СВ 1 н/о н/о +23.5 +22.7 95 +31 +31 очень
душно
1010.4 1004.3
15 21.10 С 1
{5}
40 км 4/4 700 м
[Cu med, cong]
+23.4 +22.7 96 +33 +33 очень
душно
1011.1 1005.0
16 21.10 СВ 2
{4}
40 км 4/4 700 м
[Cu med, cong]
+24.9 +23.7 93 +34 +35 очень
душно
1011.7 1005.6
17 21.10 В 5
{7}
40 км 4/4 700 м
[Cu med, cong]
+29.1 +22.8 69 +39 +40 очень
душно
1011.9 1005.9
18 21.10 В 6
{11}
40 км 3/3 700 м
[Cu med, cong]
+29.5 +22.5 66 +39 +41 очень
душно
1012.1 1006.1
19 21.10 В 8
{11}
40 км 3/3 700 м
[Cu med, cong]
+29.4 +21.9 64 +38 +40 очень
душно
1012.1 1006.1
20 21.10 В 7
{12}
40 км 3/3 700 м
[Cu med, cong]
+29.3 +22.5 67 +39 +42 очень
душно
1011.7 1005.7
21 21.10 В 7
{16}
40 км 3/3 700 м
[Cu med, cong]
+28.9 +22.4 68 +38 +42 очень
душно
1011.3 1005.3
22 21.10 В 7
{13}
40 км 3/3 700 м
[Cu med, cong]
+29.1 +22.1 66 +38 +42 очень
душно
1011.0 1005.0
23 21.10 В 8
{13}
40 км 3/3 700 м
[Cu med, cong]
+28.7 +22.0 67 +37 +40 очень
душно
1010.4 1004.4

 

Местоположение метеостанции Atuona (Французская Полинезия): широта -9.80 долгота -139.00 высота над уровнем моря 53 м.

В архиве по умолчанию представлена погода в Atuona за последнюю неделю. Архивные данные за месяц целиком и за предыдущие месяцы, начиная с января 2011 года, Вы можете получить, выбрав интересующий диапазон дат из раскрывающегося списка и нажав кнопку "Ввод!".

Внимание! Время в таблицах - всемирное. Для получения местного времени необходимо прибавить поправку, которая в Atuona равна -10 ч.

Смотрите также архив погоды в соседних городах и на ближайших метеорологических станциях:

Погода в Takaroa (Французская Полинезия) (834 км)
Погода в Hao (Французская Полинезия) (941 км)
Погода в Hereheretue (Французская Полинезия) (1295 км)
Погода в Tahiti-Faaa (Французская Полинезия) (1433 км)
Погода в Rikitea (Французская Полинезия) (1545 км)
Погода в Bora-Bora Airport (Французская Полинезия) (1560 км)
Погода в Tubuai (Французская Полинезия) (1869 км)
Погода в Pitcairn Island C (Питкерн) (1942 км)
Погода в Rapa (Французская Полинезия) (2057 км)
Погода в Penrhyn (Кука Острова) (2086 км)

Пояснения к столбцам:

Ветер - указаны скорость ветра в м/с - средняя за 10 мин, порывы в срок и между сроками (в фигурных скобках) и направление, откуда дует ветер: С - северный, СВ - северо-восточный, В - восточный, ЮВ - юго-восточный, Ю - южный, ЮЗ - юго-западный, З - западный, СЗ - северо-западный.
Видимость - горизонтальная дальность видимости в метрах или километрах. При видимости от 1 до 10 км при отсутствии осадков обычно наблюдается дымка, при ухудшении видимости до 1 км и менее - туман. В сухую погоду видимость может ухудшаться дымом, пылью или мглою.
Явления - указаны атмосферные явления, наблюдавшиеся в срок или в последний час перед сроком; фигурными скобками обозначены явления, наблюдавшиеся между сроками (за 1-3 часа до срока); квадратными скобками обозначены град или гололедные отложения с указанием их диаметра в мм.
Облачность - указаны через наклонную черту общая и нижняя облачность в баллах и высота нижней границы облаков в метрах; квадратными скобками обозначены формы облаков: Ci - перистые, Cs - перисто-слоистые, Cc - перисто-кучевые, Ac - высококучевые, As - высокослоистые, Sc - слоисто-кучевые, Ns - слоисто-дождевые, Cu - кучевые, Cb - кучево-дождевые. Подробнее классификацию облаков см. в Атласе облаков (PDF).
T - Температура воздуха - температура, измеренная на высоте 2 м над землей.
Td - Температура точки росы - температура, при понижении до которой содержащийся в воздухе водяной пар достигнет насыщения.
f - Относительная влажность воздуха - влажноcть воздуха, измеренная на высоте 2 м над землей.
Te - Эффективная температура - температура, которую ощущает одетый по сезону человек в тени. Характеристика душности погоды. При расчете учитывается влияние влажности воздуха и скорости ветра на теплоощущения человека.
Tes - Эффективная температура на солнце - температура, которую ощущает человек, с поправкой на солнечный нагрев. Характеристика знойности погоды. Зависит от высоты солнца над горизонтом, облачности и скорости ветра. Ночью, в пасмурную погоду, а также при ветре 12 м/с и более поправка равна нулю.
P - Атмосферное давление - приведенное к уровню моря атмосферное давление.
Po - Атмосферное давление - измеренное на уровне метеостанции атмосферное давление.
Tmin - Минимальная температура - минимум температуры воздуха на высоте 2 м над землей.
Tmax - Максимальная температура - максимум температуры воздуха на высоте 2 м над землей.
R - Количество осадков - Количество выпавших осадков за период времени, мм. При наведении курсора мыши на число - период времени, за который выпало указанное количество осадков.
R24 - Количество осадков - Количество выпавших осадков за 24 часа, мм.
S - Снежный покров - Высота снежного покрова, см. При наведении курсора мыши на число - состояние снежного покрова и степень покрытия местности в баллах.